Location: Chrz?st�wek
(52.0991°N, 19.1870°E)
Time: 18:01:21
(UTC+00:00)

Daily predictions for brighter satellites

Satellite Brightness Start Highest point End
(mag) Time Altitude Azimuth Time Altitude Azimuth Time Altitude Azimuth
Cosmos 1745 Rocket 4.1 19:42:32 10° S 19:48:45 87° W 19:55:05 10° N
Landsat 7 3.9 19:44:33 10° SSE 19:49:19 82° WSW 19:54:08 10° NNW
CZ-4C R/B 4.4 19:50:03 10° WNW 19:55:27 31° N 20:01:46 10° ENE
USA 267 3.5 19:49:02 10° ESE 19:55:36 79° NNE 20:02:12 10° WNW
SPOT 1/Viking Rocket 3.6 19:52:33 10° SSE 19:57:42 84° WSW 20:02:55 10° NNW
Alouette 2 Rocket 3.6 19:56:25 10° NNW 20:00:07 76° WSW 20:04:54 10° S
Cosmos 1953 Rocket 3.7 19:57:40 10° S 20:01:53 56° E 20:06:08 10° NNE
Cosmos 2322 Rocket 2.9 19:58:14 10° SW 20:03:45 59° NW 20:09:20 10° NNE
NOSS 7 (D) 3.7 20:02:55 10° SW 20:05:42 85° SE 20:08:22 10° NE
Cosmos 2237 4.3 20:00:39 10° SSW 20:06:24 87° WNW 20:12:12 10° NNE
Cosmos 2084 3.6 20:02:31 10° NW 20:07:01 88° NE 20:11:28 10° SE
Cosmos 1842 Rocket 4.2 20:03:36 10° N 20:07:46 41° ENE 20:11:52 10° SE
Cosmos 1328 3.8 20:04:17 10° S 20:08:15 87° W 20:12:15 10° N
SAR-Lupe-2 3.6 20:05:01 10° NNE 20:08:37 66° ESE 20:12:10 10° S
Cosmos 1455 3.8 20:07:33 10° NNW 20:11:01 32° W 20:14:28 10° SSW
Cosmos 1825 Rocket 3.8 20:13:12 10° SSW 20:17:38 73° WNW 20:22:08 10° N
ATLAS CENTAUR R/B 1.1 20:15:13 10° NW 20:18:57 77° SW 20:22:16 12° SE
Cosmos 1703 3.9 20:18:25 10° SSW 20:22:13 55° WNW 20:26:04 10° N
COSMOS 2428 3.0 20:18:10 10° S 20:23:32 46° ESE 20:28:57 10° NE
NOSS 3-4 (A) 4.2 20:17:18 10° NW 20:24:00 63° NE 20:31:27 10° ESE
NOSS 3-4 (C) 4.2 20:17:25 10° NW 20:24:07 63° NE 20:31:34 10° ESE
SL-24 R/B - RUBIN 2 4.5 20:20:28 10° SSW 20:26:33 69° SE 20:33:12 10° NE
Cosmos 2322 3.7 20:21:42 10° SSW 20:27:24 76° ESE 20:33:09 10° NNE
Meteor 1-27 4.3 20:24:14 10° NNW 20:29:59 86° WSW 20:35:46 10° S
Cosmos 1869 3.6 20:26:31 10° N 20:30:26 53° ENE 20:33:50 13° SSE
Cosmos 1709 Rocket 4.3 20:27:34 10° SSW 20:33:52 74° WNW 20:40:17 10° N
NOSS 3-3 (A) 4.1 20:30:20 10° SSW 20:36:02 52° SE 20:42:28 10° NE
NOSS 3-3 (C) 4.1 20:30:27 10° SSW 20:36:09 52° ESE 20:42:36 10° NE
Terra 1.9 20:31:40 11° SSE 20:36:17 82° WSW 20:41:06 10° NNW
Cosmos 2237 Rocket 3.3 20:33:12 12° SSE 20:37:21 26° ESE 20:42:02 10° NE
CARTOSAT-1 4.2 20:33:19 10° S 20:37:32 51° W 20:41:46 10° NNW
Cosmos 2333 4.2 20:33:33 10° SSW 20:39:13 87° ESE 20:44:59 10° NNE
Cosmos 2219 Rocket 2.2 20:34:03 10° SSW 20:39:34 66° ESE 20:45:09 10° NE
Cosmos 2360 Rocket 3.0 20:36:06 10° SW 20:41:40 56° NW 20:47:16 10° NNE
Cosmos 1538 Rocket 4.1 20:37:01 10° SSW 20:42:20 69° ESE 20:47:39 10° NNE
Meteor 2-2 Rocket 4.3 20:42:11 10° NNW 20:48:04 81° ENE 20:53:04 14° SSE
Cosmos 2184 Rocket 4.1 20:42:26 11° S 20:48:27 63° E 20:54:41 10° NNE
Cosmos 2333 Rocket 2.2 20:43:41 10° SSW 20:49:23 80° ESE 20:55:09 10° NNE
Cosmos 1315 Rocket 3.4 20:46:28 10° NNW 20:50:29 54° W 20:54:13 12° S
ATLAS 2AS CENTAUR R/B 3.0 20:44:17 10° NW 20:52:04 77° NE 20:59:01 11° SE
Resurs 01 Rocket 4.5 20:52:20 10° W 20:53:17 11° W 20:54:15 10° WNW
Cosmos 1818 4.3 20:51:49 10° WSW 20:57:11 58° NW 21:02:35 10° NE
Cosmos 2221 2.6 20:54:32 10° NNW 20:58:57 79° W 21:02:29 15° S
Cosmos 773 Rocket 4.5 20:54:09 10° SW 20:59:25 65° WNW 21:04:42 10° NNE
Cosmos 1371 Rocket 4.5 20:54:22 10° NNW 20:59:32 55° ENE 21:03:55 14° SE
GEOS 3 Rocket 4.0 20:55:52 10° NE 21:01:15 72° NW 21:06:37 10° SW
ERS-1 Rocket 4.2 20:57:32 10° SSW 21:02:08 35° W 21:06:46 10° NNW
USA 215 3.2 20:57:54 10° ENE 21:04:28 67° SE 21:10:58 10° SW
Iridium 2 4.4 21:01:25 10° N 21:05:06 42° E 21:07:33 18° SE
EO 1 Del DPAF 4.3 21:04:43 10° NE 21:08:04 29° E 21:10:00 19° SE
Cosmos 2278 Rocket 2.3 21:03:04 10° NW 21:08:44 71° WSW 21:13:09 17° SSE
Cosmos 1892 2.8 21:07:02 18° S 21:09:40 60° E 21:13:26 10° NNE
Cosmos 2297 4.5 21:04:23 10° NNW 21:09:58 47° NE 21:15:17 11° ESE
ATLAS 5 CENTAUR R/B 2.7 21:09:38 10° WSW 21:13:51 50° NW 21:18:42 10° NE
Cosmos 1606 4.2 21:11:24 10° N 21:14:45 27° ENE 21:17:19 14° ESE
Aureole 2 Rocket 3.5 21:12:44 10° N 21:15:13 27° ENE 21:17:00 15° ESE
Cosmos 158 Rocket 4.3 21:13:11 17° S 21:16:32 43° ESE 21:21:11 10° NE
Cosmos 1943 Rocket 3.7 21:11:42 10° NNW 21:16:46 32° NE 21:21:48 10° ESE
SPOT 5 4.4 21:14:35 10° SSW 21:18:54 29° W 21:23:05 10° NW
SL-16 R/B 3.6 21:18:56 16° SE 21:21:44 23° ESE 21:26:03 10° NE
Lacrosse 5 rocket 2.6 21:18:27 10° WNW 21:22:26 42° N 21:26:11 10° E
Spot 4 3.9 21:20:00 19° SSE 21:23:27 77° ENE 21:28:15 10° NNW
Cosmos 2056 Rocket 3.7 21:18:06 10° NNW 21:23:33 72° ENE 21:27:39 18° SE
Nadezhda 3 Rocket 4.1 21:17:45 10° N 21:24:11 88° WSW 21:29:11 17° S
Cosmos 2058 2.9 21:25:00 17° S 21:28:11 88° W 21:32:21 10° N
Cosmos 2154 Rocket 4.0 21:23:04 15° S 21:28:16 78° E 21:34:31 10° NNE
Cosmos 1408 2.6 21:29:06 23° S 21:31:09 64° E 21:34:42 10° NNE
Cosmos 2341 Rocket 4.4 21:26:54 18° SSE 21:31:21 50° E 21:37:18 10° NNE
In-Cosmos 22 Rocket 4.1 21:29:55 13° SSW 21:34:41 80° WNW 21:40:02 10° NNE
Cosmos 2074 Rocket 4.3 21:29:31 10° SSW 21:35:42 64° WNW 21:41:54 10° N
USA 267 3.6 21:34:05 18° SSE 21:38:55 49° SW 21:45:17 10° WNW
Cosmos 1076 Rocket 3.6 21:36:09 17° SSW 21:39:24 78° W 21:43:42 10° N
Cosmos 1680 Rocket 3.5 21:35:42 15° SSW 21:40:07 74° ESE 21:45:28 10° NNE
CZ-4C R/B 3.8 21:39:08 10° NW 21:45:31 47° NNE 21:53:03 10° ESE
EO 1 Delta rocket 4.2 21:43:20 10° NNE 21:48:19 82° E 21:52:50 18° S
COSMOS 2455 3.4 21:43:11 10° NW 21:49:08 55° NE 21:55:04 10° ESE
Cosmos 2151 3.1 21:47:18 23° S 21:49:49 63° E 21:54:04 10° NNE
Cosmos 1452 Rocket 4.2 21:45:23 10° NNW 21:50:32 49° ENE 21:54:48 14° SE
SL-8 Rocket 4.3 21:46:21 20° SSE 21:50:33 52° E 21:56:30 10° NNE
Helios 1A 4.0 21:48:16 16° SE 21:51:07 37° ENE 21:54:59 10° N
Cosmos 923 Rocket 4.3 21:52:29 10° SW 21:57:43 68° WNW 22:03:02 10° NNE
Cosmos 1933 3.6 21:56:11 10° N 22:00:10 59° ENE 22:02:24 24° SSE
Cosmos 1825 2.1 21:58:08 25° S 22:00:17 88° W 22:04:07 10° N
ALOS 2 2.6 21:58:03 24° SSE 22:00:41 88° ENE 22:05:06 10° NNW
Cosmos 1151 Rocket 3.2 21:56:22 10° N 22:00:42 66° ENE 22:03:13 24° SSE
Cosmos 1340 3.8 21:59:38 22° SE 22:01:11 31° E 22:04:33 10° NNE
Cosmos 2369 Rocket 3.2 21:55:57 10° NNW 22:01:16 42° NE 22:06:34 10° ESE
Cosmos 1980 3.8 21:56:59 10° SSW 22:02:39 81° WNW 22:08:21 10° NNE
APEX 3.2 22:01:09 10° NNW 22:03:49 44° NE 22:05:07 24° ESE
Cosmos 44 3.6 22:05:15 25° SSE 22:07:03 37° ESE 22:11:09 10° NE
COSMOS 2428 4.0 22:02:34 10° WSW 22:07:55 41° NW 22:13:19 10° NNE
Cosmos 371 Rocket 3.3 22:03:43 10° NNW 22:08:38 80° ENE 22:11:47 22° SSE
GP-B 3.1 22:04:24 10° N 22:08:51 75° E 22:11:23 25° S
Cosmos 1624 Rocket 4.5 22:08:51 10° NW 22:13:53 49° WSW 22:16:57 22° S
Terra 4.2 22:12:40 10° WSW 22:14:49 13° W 22:16:57 10° WNW
NOSS 3-4 (A) 4.3 22:08:20 10° NW 22:14:54 46° WSW 22:19:46 20° S
NOSS 3-4 (C) 4.3 22:08:26 10° NW 22:15:01 46° WSW 22:19:55 20° S
NOSS 0 Rocket 4.3 22:09:06 10° SW 22:15:12 65° NW 22:21:23 10° NNE
Helios 1B rocket 4.5 22:14:25 10° NE 22:17:10 17° E 22:19:04 13° ESE
Nimbus 7 Rocket 4.4 22:12:08 10° NNE 22:18:08 82° ESE 22:22:22 20° SSW
SL-4 R/B 0.2 22:19:54 74° E 22:19:55 74° ENE 22:22:00 10° NNW
Cosmos 2237 Rocket 2.5 22:15:19 10° SW 22:20:59 66° NW 22:26:43 10° NNE
Cosmos 1782 3.5 22:17:30 10° N 22:21:19 44° ENE 22:23:34 21° SE
Genesis I 3.1 22:18:36 16° SW 22:21:40 88° NW 22:25:35 10° NE
IRIDIUM 106 4.3 22:19:31 23° S 22:22:48 81° E 22:28:03 10° N
CREW DRAGON DEMO-1 DEB 3.3 22:22:53 38° SSE 22:22:53 38° SSE 22:25:46 10° E
Cosmos 2344 3.5 22:16:25 10° SSW 22:23:50 76° SE 22:32:09 10° NE
Cosmos 2219 Rocket 3.9 22:19:00 10° WSW 22:23:58 31° NW 22:28:58 10° NNE
Thor Agena Rocket 4.3 22:23:56 10° N 22:28:53 49° WNW 22:33:18 12° SW
Cosmos 1346 Rocket 3.5 22:28:04 25° SSE 22:29:47 40° E 22:33:30 10° NNE
Cosmos 2333 Rocket 4.2 22:29:26 10° W 22:34:19 28° NW 22:39:14 10° NNE
RESURS DK-1 3.4 22:35:37 10° NNW 22:39:36 44° NE 22:43:23 11° ESE
Cosmos 1515 Rocket 3.5 22:36:31 10° NNW 22:40:53 87° W 22:43:15 27° S
BREEZE-M DEB (TANK) 3.3 22:40:01 10° W 22:41:21 17° WSW 22:41:21 17° WSW
ATLAS 2AS CENTAUR R/B 3.6 22:35:53 10° NW 22:42:30 35° WSW 22:46:25 20° SSW
EP 3 3.7 22:42:46 69° NNW 22:42:46 69° NNW 22:44:41 10° NE
Cosmos 1766 Rocket 4.0 22:44:24 21° SSW 22:47:08 55° WNW 22:51:30 10° N
USA 215 3.6 22:41:01 10° ENE 22:47:33 68° NNW 22:54:02 10° W
Cosmos 1328 Rocket 4.1 22:44:04 10° NNW 22:48:12 46° W 22:50:25 24° SSW
Aureole 2 Rocket 3.8 22:46:36 10° WNW 22:48:40 18° WSW 22:48:59 18° WSW
Okean 3 Rocket 4.3 22:47:02 19° SW 22:50:00 46° WNW 22:54:18 10° N
Gbstr 26 Del rocket 3.6 22:49:28 28° SSE 22:50:04 30° SE 22:53:47 10° E
Cosmos 1606 3.9 22:47:02 10° NNW 22:50:30 31° W 22:52:19 21° SW
Cosmos 2278 Rocket 4.3 22:49:09 10° WNW 22:51:48 14° W 22:54:27 10° SW
Cosmos 2297 4.4 22:48:47 10° NW 22:54:05 40° WSW 22:57:11 22° SSW
Cosmos 304 Rocket 3.7 22:50:12 10° NNW 22:55:04 82° WSW 22:58:04 23° SSE
Cosmos 2218 Rocket 4.2 22:50:54 20° SSW 22:55:29 71° WNW 23:01:49 10° N
Cosmos 2228 Rocket 3.2 22:51:58 10° N 22:56:36 78° E 22:59:19 24° SSE
Cosmos 1943 4.4 22:56:06 18° SSE 22:59:11 30° ESE 23:04:02 10° NE
ATLAS 5 CENTAUR R/B 4.4 22:55:44 10° WNW 22:59:36 24° N 23:03:56 10° NE
Cosmos 1862 4.5 22:58:33 20° SE 23:00:34 33° E 23:04:10 10° NNE
Cosmos 1943 Rocket 2.3 22:55:20 10° NW 23:00:59 66° WSW 23:04:40 22° SSE
Cosmos 2366 rocket 4.2 22:56:35 20° SSW 23:01:11 68° WNW 23:07:32 10° N
Lacrosse 5 rocket 1.1 22:57:51 10° WNW 23:01:54 90° ENE 23:05:42 10° ESE
Landsat 4 3.7 22:58:22 10° NNE 23:02:10 77° ESE 23:03:59 30° S
Cosmos 1633 2.5 23:01:11 31° S 23:02:48 88° E 23:06:26 10° N
SL-16 R/B 2.3 23:00:46 17° SW 23:05:16 76° WNW 23:11:01 10° NNE
Cosmos 1821 Rocket 4.1 23:05:52 21° S 23:10:00 67° E 23:16:03 10° NNE
Cosmos 2123 Rocket 4.4 23:04:08 10° N 23:10:16 57° ENE 23:15:27 14° SSE
Cosmos 1743 Rocket 3.5 23:12:36 26° SSW 23:14:59 86° WNW 23:19:22 10° N
Sich 1 4.0 23:15:28 20° SSE 23:17:59 38° E 23:22:01 10° NNE
Cosmos 1331 Rocket 4.0 23:14:15 10° NNW 23:19:36 90° NNW 23:23:39 18° SSE
Cosmos 1048 Rocket 4.0 23:19:32 23° SSW 23:22:55 79° ESE 23:28:12 10° NNE
Meteor 2-3 Rocket 4.2 23:21:02 18° SW 23:25:07 54° WNW 23:30:44 10° N
Helios 1A 4.3 23:24:53 20° SW 23:26:45 28° W 23:30:22 10° NW
Meteor 1-29 3.5 23:24:23 10° NNE 23:27:39 46° E 23:29:10 26° SSE
Cosmos 405 3.9 23:24:32 10° NNW 23:27:48 34° W 23:29:08 25° SW
Meteor 1-10 Rocket 4.2 23:26:18 10° NNW 23:31:56 81° W 23:35:50 20° S
Cosmos 292 Rocket 4.5 23:29:09 10° NNW 23:33:53 53° ENE 23:38:33 10° SE
PSLV R/B 3.5 23:29:50 10° NNE 23:34:03 79° WNW 23:36:34 24° SSW
Meteor 2-6 Rocket 4.2 23:28:52 10° NNW 23:34:20 67° W 23:37:54 22° S
CZ-4C R/B 2.9 23:27:38 10° NW 23:34:39 74° SW 23:42:48 10° SSE
Cosmos 389 Rocket 3.2 23:31:15 10° N 23:34:42 49° ENE 23:37:05 18° SE
COSMOS 2455 3.5 23:29:24 10° NW 23:34:58 39° WSW 23:38:24 21° S
Cosmos 1110 Rocket 4.1 23:31:27 10° NNW 23:36:41 63° WSW 23:40:16 20° S
Cosmos 1340 4.3 23:34:23 14° WSW 23:36:49 26° WNW 23:40:02 10° N
SL-16 R/B 3.1 23:32:21 10° SE 23:38:25 57° ENE 23:44:32 10° N
Cosmos 1603 3.8 23:36:25 22° SSW 23:40:11 67° ESE 23:45:53 10° NE
IRAS Rocket 4.3 23:37:09 13° SSE 23:42:01 77° ENE 23:47:32 10° NNW
Resurs 1-4 Rocket 3.4 23:39:43 10° NNE 23:44:31 33° E 23:48:44 12° SSE
Cosmos 2369 Rocket 2.6 23:40:04 10° NW 23:45:22 44° WSW 23:48:49 21° S
Cosmos 1666 Rocket 4.1 23:44:14 19° SSE 23:47:08 51° E 23:51:25 10° NNE
Cosmos 1500 Rocket 4.2 23:44:49 20° SW 23:47:35 45° WNW 23:51:50 10° N
SeaSat 1 3.4 23:43:37 10° NE 23:48:12 36° ESE 23:51:20 18° S
Cosmos 44 4.1 23:44:03 10° WSW 23:48:12 42° NW 23:52:32 10° NE
ISS -2.2 23:51:00 20° SSE 23:51:16 20° SE 23:53:50 10° E
Helios 1B rocket 2.7 23:48:44 10° N 23:52:49 61° WNW 23:55:23 21° SW
ADEOS II 4.2 23:52:04 10° NE 23:55:37 18° E 23:59:09 10° SE
